Miscellaneous Local Product
Issued by NWS Hastings, NE

Home | Current Version | Previous Version | Text Only | Print | Product List | Glossary On
Versions: 1 2 3 4 5 6 7 8 9 10 11 12 13 14 15 16 17 18 19 20 21 22 23 24 25 26 27 28 29 30 31 32 33 34 35 36 37 38 39 40 41 42 43 44 45 46 47 48 49 50
000
AXUS43 KGID 271502
MISGRI

GID CWA HOURLY WEATHER ROUNDUP
NATIONAL WEATHER SERVICE HASTINGS NE
1000 AM CDT WED AUG 27 2014

NOTE: "FAIR" INDICATES FEW OR NO CLOUDS BELOW 12,000 FEET WITH NO
SIGNIFICANT WEATHER AND/OR OBSTRUCTIONS TO VISIBILITY.

...SOUTH CENTRAL NEBRASKA...

CITY           SKY/WX    TMP DP  RH WIND       PRES   REMARKS
GRAND ISLAND   CLOUDY    70  67  90 CALM      30.15R
HASTINGS       CLOUDY    71  66  84 SE5       30.13R
KEARNEY        CLOUDY    70  66  88 N6        30.14R
ORD            CLOUDY    69  66  90 NE6       30.12R
YORK           CLOUDY    72 N/A N/A E5        30.14R
AURORA         CLOUDY    70  69  99 E6        30.15R
LEXINGTON      CLOUDY    70  67  91 N3        30.13S
HOLDREGE       CLOUDY    70  67  89 CALM      30.12S
HEBRON         PTSUNNY   74  69  82 SE3       30.11R

...NEBRASKA PANHANDLE...

CITY           SKY/WX    TMP DP  RH WIND       PRES   REMARKS
CHADRON        MOSUNNY   67  60  78 E6        30.13S
ALLIANCE       PTSUNNY   66  63  90 SE8       30.14S
SCOTTSBLUFF    CLOUDY    67  64  90 E7        30.13F
SIDNEY         MOSUNNY   67  60  78 SE14      30.16S

...WESTERN AND NORTH CENTRAL NEBRASKA...

CITY           SKY/WX    TMP DP  RH WIND       PRES   REMARKS
VALENTINE      CLOUDY    70  67  90 E6        30.11F
AINSWORTH      PTSUNNY   67  65  94 E9        30.13R
ONEILL         CLOUDY    69  67  94 CALM      30.13F
BROKEN BOW     CLOUDY    71  67  87 E3        30.13S
IMPERIAL       PTSUNNY   68  63  84 S13       30.13S
NORTH PLATTE   CLOUDY    67  65  93 SE6       30.15R
MCCOOK         CLOUDY    69  67  93 SE7       30.14R

...EASTERN NEBRASKA...

CITY           SKY/WX    TMP DP  RH WIND       PRES   REMARKS
NORFOLK        CLOUDY    67  65  93 NE8       30.13F
SO SIOUX CITY  RAIN      64  63  96 CALM      30.19R FOG
TEKAMAH        LGT RAIN  67  66  97 NE5       30.15F FOG
COLUMBUS       CLOUDY    66  63  88 E10G16    30.14S
ALBION         CLOUDY    68  65  92 E8        30.12S
OMAHA EPPLEY   TSTM      68  66  93 N6        30.16R VSB 1
OFFUTT AFB     TSTM      68  68 100 E8        30.15R FOG
MILLARD        CLOUDY    69  67  93 E5        30.16R
LINCOLN        MOSUNNY   72  69  90 E7        30.14R
NEBRASKA CITY  CLOUDY    70  70 100 E7        30.14S
BEATRICE       LGT RAIN  74  72  93 S8        30.12R
FALLS CITY     CLOUDY    71  69  93 SE10      30.13R

...NORTHERN KANSAS...

CITY           SKY/WX    TMP DP  RH WIND       PRES   REMARKS
GOODLAND       CLOUDY    67  64  90 S15       30.15S
HILL CITY      CLOUDY    73  67  81 S3        30.13S
NORTON         MOSUNNY   70  64  83 SE6       30.12F
PHILLIPSBURG   MOSUNNY   72  72 100 E3        30.11S
SMITH CENTER   SUNNY     72  70  94 SE6       30.12R
BELOIT         MOSUNNY   77  70  78 CALM      30.10S
HAYS           CLOUDY    72  63  73 W9        30.12F
RUSSELL        CLOUDY    75  64  68 SW9       30.10F
CONCORDIA      PTSUNNY   74  70  87 CALM      30.11R
SALINA         MOSUNNY   84  66  54 SW13      30.10F
TOPEKA         PTSUNNY   79  73  82 E7        30.13R



USA.gov is the U.S. government's official web portal to all federal, state and local government web resources and services.